Location: Gaspur (historical)
(33.7814°N, 118.2212°W)
Time: 18:08:00
(UTC+00:00)

Nadezhda 4 Rocket - Pass Details

Date: 29 October 2020
Orbit: 950 x 991 km, 82.9° (Epoch: 23 November)

Event Time Altitude Azimuth Distance (km) Brightness Sun altitude
Rises 12:00:18 0° 188° (S) 3,607 6.9 -27.5°
Reaches altitude 10° 12:02:47 10° 190° (S) 2,665 6.2 -26.9°
Maximum altitude 12:08:52 77° 276° (W) 977 3.8 -25.7°
Drops below altitude 10° 12:15:01 10° 3° (N) 2,689 6.3 -24.4°
Sets 12:17:32 0° 5° (N) 3,642 7.1 -23.9°
